When you browse on this site, cookies collect data to enhance your experience and personalize the content and advertising you see.
Visit our Privacy Policy to learn more. By continuing to use the site, you agree to this use of cookies and data.
  • In United Kingdom
  • List of Countries
  • For 7 days
  • Water Temperature
  • Satellite Maps
  • Weather Map
  • Weather Widgets
  • user-avatar
    Login

    Hourly Weather Blagoevgrad

    Today, 15 December, Saturday

    Time Temperature Precipitation Wind Pressure Humidity
    00:00 +5°C° 0 mm 2 mps 720 mmHg 93%
    01:00 +5°C° 0 mm 2 mps 720 mmHg 94%
    02:00 +5°C° 0 mm 2 mps 720 mmHg 94%
    03:00 +5°C° 0 mm 2 mps 720 mmHg 94%
    04:00 +5°C° 0 mm 2 mps 720 mmHg 94%
    05:00 +5°C° 0 mm 2 mps 720 mmHg 94%
    06:00 +5°C° 0 mm 2 mps 720 mmHg 93%
    07:00 +5°C° 0 mm 2 mps 720 mmHg 93%
    08:00 +5°C° 0 mm 2 mps 719 mmHg 93%
    09:00 +6°C° 0 mm 2 mps 720 mmHg 89%
    10:00 +8°C° 0 mm 2 mps 720 mmHg 85%
    11:00 +9°C° 0 mm 2 mps 720 mmHg 81%
    12:00 +9°C° 0.1 mm 2 mps 719 mmHg 80%
    13:00 +10°C° 0.1 mm 2 mps 719 mmHg 79%
    14:00 +10°C° 0.1 mm 2 mps 719 mmHg 78%
    15:00 +9°C° 0.1 mm 2 mps 718 mmHg 82%
    16:00 +8°C° 0.1 mm 2 mps 718 mmHg 86%
    17:00 +8°C° 0.1 mm 2 mps 718 mmHg 90%
    18:00 +7°C° 0.1 mm 2 mps 718 mmHg 91%
    19:00 +7°C° 0.1 mm 2 mps 718 mmHg 92%
    20:00 +7°C° 0.1 mm 2 mps 718 mmHg 93%
    21:00 +7°C° 0 mm 2 mps 718 mmHg 93%
    22:00 +7°C° 0 mm 2 mps 718 mmHg 93%
    23:00 +6°C° 0 mm 2 mps 718 mmHg 92%

    Tomorrow, 16 December, Sunday

    Time Temperature Precipitation Wind Pressure Humidity
    00:00 +7°C° 0.1 mm 2 mps 718 mmHg 93%
    01:00 +7°C° 0.1 mm 2 mps 718 mmHg 93%
    02:00 +7°C° 0.1 mm 2 mps 718 mmHg 93%
    03:00 +7°C° 0.1 mm 2 mps 718 mmHg 93%
    04:00 +8°C° 0.1 mm 1 mps 718 mmHg 93%
    05:00 +8°C° 0.1 mm 1 mps 717 mmHg 93%
    06:00 +8°C° 0.2 mm 1 mps 718 mmHg 92%
    07:00 +8°C° 0.2 mm 1 mps 718 mmHg 92%
    08:00 +8°C° 0.2 mm 1 mps 718 mmHg 92%
    09:00 +8°C° 0.4 mm 1 mps 719 mmHg 90%
    10:00 +9°C° 0.4 mm 1 mps 719 mmHg 87%
    11:00 +9°C° 0.4 mm 1 mps 719 mmHg 85%
    12:00 +8°C° 0.8 mm 2 mps 719 mmHg 86%
    13:00 +7°C° 0.8 mm 2 mps 719 mmHg 87%
    14:00 +6°C° 0.8 mm 2 mps 719 mmHg 88%
    15:00 +6°C° 0.7 mm 2 mps 720 mmHg 88%
    16:00 +5°C° 0.7 mm 2 mps 720 mmHg 88%
    17:00 +5°C° 0.7 mm 2 mps 720 mmHg 88%
    18:00 +4°C° 0.4 mm 2 mps 721 mmHg 88%
    19:00 +4°C° 0.4 mm 2 mps 721 mmHg 87%
    20:00 +4°C° 0.4 mm 2 mps 722 mmHg 87%
    21:00 +3°C° 0 mm 2 mps 722 mmHg 87%
    22:00 +4°C° 0 mm 1 mps 722 mmHg 88%
    23:00 +4°C° 0 mm 1 mps 722 mmHg 88%

    Day after tomorrow, 17 December, Monday

    Time Temperature Precipitation Wind Pressure Humidity
    00:00 +4°C° 0 mm 1 mps 722 mmHg 88%
    01:00 +3°C° 0 mm 1 mps 722 mmHg 88%
    02:00 +3°C° 0 mm 1 mps 722 mmHg 88%
    03:00 +4°C° 0 mm 1 mps 722 mmHg 88%
    04:00 +4°C° 0 mm 1 mps 721 mmHg 88%
    05:00 +4°C° 0 mm 1 mps 721 mmHg 88%
    06:00 +4°C° 0 mm 1 mps 721 mmHg 87%
    07:00 +5°C° 0 mm 1 mps 721 mmHg 87%
    08:00 +5°C° 0 mm 1 mps 721 mmHg 87%
    09:00 +6°C° 0.1 mm 1 mps 721 mmHg 87%
    10:00 +7°C° 0.1 mm 1 mps 721 mmHg 86%
    11:00 +8°C° 0.1 mm 1 mps 721 mmHg 85%
    12:00 +8°C° 0.3 mm 1 mps 721 mmHg 86%
    13:00 +8°C° 0.3 mm 1 mps 721 mmHg 87%
    14:00 +8°C° 0.3 mm 1 mps 720 mmHg 87%
    15:00 +8°C° 0.6 mm 1 mps 720 mmHg 89%
    16:00 +7°C° 0.6 mm 1 mps 720 mmHg 90%
    17:00 +6°C° 0.6 mm 0 mps 720 mmHg 91%
    18:00 +6°C° 0.1 mm 0 mps 720 mmHg 91%
    19:00 +5°C° 0.1 mm 0 mps 720 mmHg 92%
    20:00 +5°C° 0.1 mm 0 mps 721 mmHg 92%
    21:00 +5°C° 0 mm 0 mps 721 mmHg 92%
    22:00 +6°C° 0 mm 1 mps 721 mmHg 92%
    23:00 +6°C° 0 mm 1 mps 721 mmHg 92%

    18 December, Tuesday

    Time Temperature Precipitation Wind Pressure Humidity
    00:00 +5°C° 0 mm 1 mps 720 mmHg 92%
    01:00 +5°C° 0 mm 1 mps 720 mmHg 92%
    02:00 +5°C° 0 mm 1 mps 720 mmHg 93%
    03:00 +5°C° 0.2 mm 1 mps 720 mmHg 92%
    04:00 +5°C° 0.2 mm 1 mps 720 mmHg 92%
    05:00 +4°C° 0.2 mm 2 mps 720 mmHg 91%
    06:00 +4°C° 0.5 mm 2 mps 720 mmHg 91%
    07:00 +4°C° 0.5 mm 2 mps 720 mmHg 90%
    08:00 +4°C° 0.5 mm 2 mps 721 mmHg 90%
    09:00 +5°C° 0.7 mm 2 mps 721 mmHg 89%
    10:00 +5°C° 0.7 mm 2 mps 721 mmHg 88%
    11:00 +4°C° 0.7 mm 3 mps 721 mmHg 87%
    12:00 +4°C° 0.5 mm 3 mps 721 mmHg 87%
    13:00 +4°C° 0.5 mm 3 mps 721 mmHg 86%
    14:00 +4°C° 0.5 mm 3 mps 721 mmHg 86%
    15:00 +4°C° 0.3 mm 3 mps 721 mmHg 86%
    16:00 +4°C° 0.3 mm 3 mps 722 mmHg 87%
    17:00 +3°C° 0.3 mm 3 mps 722 mmHg 87%
    18:00 +3°C° 0.2 mm 3 mps 722 mmHg 87%
    19:00 +3°C° 0.2 mm 3 mps 723 mmHg 88%
    20:00 +2°C° 0.2 mm 3 mps 723 mmHg 88%
    21:00 +2°C° 0 mm 3 mps 723 mmHg 88%
    22:00 +2°C° 0 mm 3 mps 724 mmHg 89%
    23:00 +1°C° 0 mm 3 mps 724 mmHg 89%

    19 December, Wednesday

    Time Temperature Precipitation Wind Pressure Humidity
    00:00 +2°C° 0 mm 2 mps 724 mmHg 89%
    01:00 +2°C° 0 mm 2 mps 724 mmHg 90%
    02:00 +2°C° 0 mm 2 mps 724 mmHg 90%
    03:00 +1°C° 0 mm 2 mps 724 mmHg 90%
    04:00 +1°C° 0 mm 2 mps 724 mmHg 90%
    05:00 +1°C° 0 mm 2 mps 724 mmHg 90%
    06:00 +1°C° 0 mm 2 mps 724 mmHg 89%
    07:00 +1°C° 0 mm 2 mps 725 mmHg 89%
    08:00 +1°C° 0 mm 2 mps 725 mmHg 89%
    09:00 +3°C° 0 mm 1 mps 725 mmHg 85%
    10:00 +5°C° 0 mm 1 mps 725 mmHg 81%
    11:00 +6°C° 0 mm 1 mps 725 mmHg 78%
    12:00 +7°C° 0 mm 1 mps 725 mmHg 77%
    13:00 +8°C° 0 mm 1 mps 724 mmHg 76%
    14:00 +8°C° 0 mm 1 mps 724 mmHg 75%
    15:00 +7°C° 0 mm 1 mps 724 mmHg 78%
    16:00 +6°C° 0 mm 1 mps 723 mmHg 81%
    17:00 +4°C° 0 mm 1 mps 723 mmHg 84%
    18:00 +4°C° 0 mm 1 mps 723 mmHg 83%
    19:00 +3°C° 0 mm 1 mps 724 mmHg 83%
    20:00 +3°C° 0 mm 1 mps 724 mmHg 82%
    21:00 +3°C° 0 mm 1 mps 724 mmHg 81%
    22:00 +3°C° 0 mm 1 mps 724 mmHg 80%
    23:00 +3°C° 0 mm 1 mps 724 mmHg 78%

    20 December, Thursday

    Time Temperature Precipitation Wind Pressure Humidity
    00:00 +3°C° 0 mm 1 mps 724 mmHg 78%
    01:00 +3°C° 0 mm 1 mps 724 mmHg 78%
    02:00 +3°C° 0 mm 1 mps 724 mmHg 78%
    03:00 +2°C° 0 mm 1 mps 724 mmHg 77%
    04:00 +2°C° 0 mm 1 mps 724 mmHg 77%
    05:00 +2°C° 0 mm 1 mps 724 mmHg 77%
    06:00 +2°C° 0 mm 1 mps 724 mmHg 76%
    07:00 +2°C° 0 mm 1 mps 724 mmHg 76%
    08:00 +2°C° 0 mm 1 mps 725 mmHg 76%
    09:00 +4°C° 0 mm 1 mps 725 mmHg 74%
    10:00 +6°C° 0 mm 1 mps 725 mmHg 71%
    11:00 +8°C° 0 mm 1 mps 725 mmHg 69%
    12:00 +8°C° 0 mm 1 mps 725 mmHg 69%
    13:00 +9°C° 0 mm 1 mps 725 mmHg 70%
    14:00 +9°C° 0 mm 1 mps 725 mmHg 70%
    15:00 +8°C° 0 mm 1 mps 725 mmHg 75%
    16:00 +7°C° 0 mm 1 mps 724 mmHg 79%
    17:00 +6°C° 0 mm 1 mps 724 mmHg 84%
    18:00 +5°C° 0 mm 1 mps 725 mmHg 86%
    19:00 +5°C° 0 mm 1 mps 725 mmHg 88%
    20:00 +4°C° 0 mm 1 mps 725 mmHg 90%
    21:00 +4°C° 0 mm 1 mps 725 mmHg 90%
    22:00 +4°C° 0 mm 1 mps 725 mmHg 91%
    23:00 +4°C° 0 mm 1 mps 725 mmHg 91%
    Show more